Theta_e
351 348 347 346 344 343 344 345 346 345 347 349 347 348 347 348 349 348 352 353 354 354 354 352 354 352 349 349 349 348 345 340 340 338 341 340 339 341 340 340 341 342 343
352 350 348 347 345 343 345 345 346 347 347 346 345 346 347 347 348 348 352 353 353 356 353 354 351 351 351 352 350 352 346 341 340 341 341 341 338 339 340 340 341 342 344
353 352 350 348 346 344 346 347 347 348 347 344 345 346 347 349 349 351 351 353 353 354 356 356 352 353 353 352 352 351 350 348 340 344 345 349 349 342 340 342 343 344 343
353 352 352 350 348 345 346 347 347 348 348 346 343 347 348 347 347 349 347 352 352 353 355 354 355 355 350 353 353 351 354 350 341 338 341 344 344 350 352 342 344 345 344
351 353 352 350 349 346 345 347 348 349 347 347 344 347 348 346 346 346 351 351 352 353 352 354 354 356 354 354 354 355 355 347 349 340 340 344 343 343 347 356 345 344 344
352 352 350 350 350 349 346 347 350 351 349 349 346 349 347 347 344 346 350 350 351 353 353 353 355 355 355 355 355 355 355 355 352 347 342 342 343 346 345 345 346 345 344
353 352 352 351 351 350 349 347 351 354 351 350 348 351 352 349 349 350 347 347 346 347 351 354 355 355 354 356 356 357 355 355 352 353 347 343 344 344 343 343 343 344 343
353 353 353 352 351 351 352 351 352 355 354 351 349 348 350 347 346 352 348 347 346 346 352 356 354 354 356 354 355 356 354 353 355 356 355 352 346 347 346 345 345 346 343
354 354 353 352 351 352 354 354 353 355 356 352 351 351 350 347 347 350 351 352 348 346 348 349 354 354 353 354 355 354 355 355 356 356 356 354 349 348 347 347 346 344 347
352 352 354 353 352 351 352 354 354 357 357 353 354 353 352 351 351 352 355 352 350 350 351 352 351 353 352 353 354 353 355 358 355 355 356 355 352 351 351 350 348 347 346
349 350 351 352 353 352 351 353 355 357 358 356 354 353 354 352 351 353 354 353 354 353 353 353 353 351 351 354 355 354 352 356 356 356 357 356 355 354 351 350 351 350 348
344 346 349 351 352 353 353 353 353 353 356 356 355 355 355 354 355 353 352 354 355 356 356 356 354 353 350 352 355 356 351 354 354 356 357 358 357 359 358 356 353 351 352
340 341 345 351 352 353 354 354 353 353 354 356 356 357 357 357 356 356 354 353 355 357 357 358 358 356 353 351 354 356 356 352 354 356 358 358 359 360 359 360 358 355 355
339 342 345 349 352 354 357 357 354 353 353 354 354 357 359 358 357 356 356 355 356 358 358 359 359 358 356 353 351 353 356 356 354 354 356 357 358 360 361 361 361 361 359
344 341 344 347 351 354 359 358 355 355 354 355 354 357 359 359 358 357 357 358 358 358 359 359 359 359 357 354 352 350 352 355 356 354 355 357 357 358 360 359 358 360 359
345 346 347 347 349 352 355 359 358 357 356 357 355 355 359 360 360 359 358 359 359 359 360 360 360 359 356 351 350 350 351 351 352 355 356 356 355 355 356 356 355 353 357
343 346 348 349 348 347 351 356 359 357 357 359 357 356 359 361 361 360 360 361 361 360 361 361 361 360 360 352 350 348 350 351 352 353 354 354 348 350 354 356 355 353 353
339 340 343 347 347 346 346 350 355 359 359 359 361 358 360 362 362 362 363 363 363 362 362 363 362 361 360 357 353 351 349 349 350 352 354 355 352 349 350 354 356 356 356
335 336 338 343 347 349 349 348 353 358 361 362 362 361 361 363 364 364 364 364 364 364 364 364 363 363 361 358 355 354 353 352 353 355 354 354 355 356 356 355 354 353 353
331 333 336 345 348 350 353 351 350 357 362 361 362 363 362 363 365 365 364 364 364 364 361 362 363 363 363 361 358 355 354 353 353 353 355 355 355 356 357 357 358 359 359
327 331 334 344 351 354 358 357 353 356 359 360 362 364 363 364 365 365 365 365 364 361 363 362 363 364 362 363 362 358 356 353 352 351 349 350 352 352 351 351 355 359 359
325 329 330 339 343 356 362 361 358 356 358 360 362 363 364 363 363 365 366 365 365 365 365 364 364 360 362 361 361 360 359 356 354 351 346 346 346 349 351 353 354 354 354
322 325 327 332 331 339 356 355 359 358 359 361 362 363 363 363 362 365 366 365 365 362 362 362 361 357 356 361 360 358 358 356 356 353 350 352 353 359 359 358 357 358 356
320 323 325 329 329 331 333 341 346 357 359 362 363 363 363 363 362 363 364 362 361 362 359 359 359 357 355 354 360 361 360 358 357 355 353 355 358 361 362 362 362 360 359
320 323 325 325 327 327 327 328 331 344 359 360 360 361 361 361 363 361 360 361 359 359 359 355 356 358 359 359 358 361 363 359 358 358 357 357 357 358 360 362 363 364 364
321 322 326 325 325 325 323 325 327 329 346 358 360 360 360 362 361 360 358 358 358 358 357 357 357 360 358 358 360 360 362 364 364 358 360 361 361 362 362 363 362 363 363
Wind_Speed
25 31 29 29 28 27 26 26 24 20 21 18 18 17 16 13 9 9 6 7 6 7 5 5 6 3 4 2 5 5 2 3 1 5 6 4 4 4 6 6 3 6 5
24 28 30 31 30 29 28 27 25 23 23 20 18 16 16 15 13 11 11 10 9 8 6 7 7 7 5 5 5 2 9 6 5 7 7 5 8 8 6 2 2 1 3
26 25 30 32 32 32 31 29 27 25 25 21 19 15 15 12 13 11 11 12 11 9 5 5 7 6 6 9 6 5 6 4 5 8 5 3 2 8 6 6 7 2 5
23 25 28 32 35 34 32 29 29 27 26 23 22 21 19 17 16 14 15 14 12 11 10 7 6 6 6 4 6 7 7 5 9 5 4 3 7 3 1 7 5 6 5
25 27 28 36 35 35 34 32 30 28 27 28 22 23 20 18 16 15 16 10 14 11 10 9 8 7 9 7 3 3 4 5 2 8 6 1 2 3 4 4 10 6 5
25 25 34 35 34 35 34 33 32 31 30 29 29 25 24 19 18 17 15 16 14 13 12 11 10 10 6 6 7 6 6 6 4 2 5 7 8 10 6 3 5 2 4
22 24 25 30 36 37 38 36 36 34 34 31 31 25 24 24 14 18 18 17 16 16 19 15 12 12 11 8 7 8 6 7 6 6 7 7 5 5 5 5 6 4 5
23 23 24 31 36 38 37 36 37 36 36 35 33 32 27 24 24 19 18 18 15 15 16 14 14 13 12 10 10 10 10 10 8 7 9 8 8 6 7 7 7 6 9
23 25 24 32 35 37 37 38 36 38 36 37 34 32 31 30 26 23 25 16 15 13 11 13 14 15 14 13 14 11 11 6 8 8 9 9 10 8 8 8 8 8 6
24 22 23 31 35 37 39 38 37 39 40 38 37 36 34 33 28 25 22 21 19 17 8 14 15 15 16 15 16 14 15 10 11 12 13 10 12 9 9 10 10 10 11
21 21 22 31 35 35 36 39 38 37 37 38 37 36 34 34 34 28 25 25 19 17 18 15 14 16 17 16 17 17 12 16 14 13 10 11 12 12 11 11 11 12 12
19 19 22 27 32 35 36 38 40 41 40 39 38 38 36 36 34 33 31 26 24 22 21 20 19 18 19 19 19 18 17 16 15 14 15 15 15 17 16 14 15 15 14
10 12 15 19 26 34 33 37 38 39 39 38 39 37 37 36 35 33 32 30 28 26 24 23 23 21 20 20 20 20 20 18 17 17 17 17 17 17 18 15 16 16 17
6 10 12 16 23 29 31 31 35 37 37 38 39 39 38 38 37 34 34 33 31 29 27 26 25 24 23 22 22 22 22 21 20 19 18 18 19 19 18 18 18 19 20
7 4 11 14 19 24 27 31 33 34 37 36 36 38 39 38 36 37 35 33 32 30 29 27 26 26 25 25 26 25 23 23 22 20 20 20 21 21 20 19 19 18 19
7 7 8 9 9 20 25 28 32 33 35 35 37 36 37 37 38 37 35 33 32 31 30 29 28 28 28 28 28 28 25 24 23 22 22 23 22 23 25 28 30 29 24
9 10 9 8 12 14 22 27 30 32 33 31 34 33 34 35 36 36 35 35 33 31 31 30 29 29 31 29 29 31 28 23 24 24 23 23 23 25 27 25 26 27 27
12 11 11 13 12 15 21 25 30 33 32 33 32 35 35 35 35 34 34 34 33 34 32 31 31 30 30 31 32 30 31 29 28 25 24 26 27 27 24 22 24 25 24
14 15 17 20 16 18 20 22 28 31 33 33 36 37 36 35 34 35 34 33 31 30 31 31 31 31 30 31 34 32 27 28 29 28 29 30 30 31 30 30 30 30 31
16 18 22 25 18 20 21 24 24 29 34 38 37 34 35 35 35 35 35 34 32 32 32 31 30 31 30 31 34 34 28 27 28 28 31 34 35 33 33 32 29 29 27
19 20 18 18 21 21 22 24 28 30 32 32 32 32 34 34 34 32 31 32 33 31 30 28 28 29 30 30 32 35 33 29 27 28 27 28 30 31 31 35 33 29 24
20 21 20 19 23 24 25 19 24 24 25 27 30 32 32 33 32 31 29 28 27 26 25 26 24 28 28 30 31 33 35 34 31 29 27 25 28 28 28 28 29 28 29
19 20 19 17 22 24 25 10 17 19 21 24 26 28 30 31 29 31 29 28 27 28 28 26 27 28 27 27 31 34 35 37 36 31 27 27 26 17 17 21 23 22 19
17 18 17 18 20 26 28 26 24 11 18 22 23 26 28 29 30 30 29 28 28 28 26 26 25 25 25 26 25 30 35 34 34 37 36 30 23 19 19 17 19 22 20
16 14 15 17 20 23 26 29 30 19 11 20 24 25 27 29 29 27 29 29 27 28 27 25 24 23 23 25 25 22 20 22 27 24 22 23 25 26 26 24 23 21 19
16 10 11 14 18 21 25 28 29 30 13 15 18 24 26 27 29 29 18 23 19 23 20 16 16 11 15 13 18 23 18 12 21 21 22 23 23 23 22 19 20 22 23
Wind_Direction
181 179 191 186 186 187 185 188 186 178 180 182 186 187 182 190 188 196 146 171 164 163 171 146 155 175 126 164 147 144 210 109 120 118 126 135 146 226 150 190 175 131 199
181 180 192 189 191 189 189 188 189 182 187 189 192 192 193 186 197 194 171 190 183 173 179 152 164 165 174 169 199 197 241 131 165 240 204 163 157 166 172 179 205 248 208
185 186 189 192 194 191 191 189 191 187 190 193 190 195 196 204 202 166 180 193 187 184 182 185 145 172 193 174 193 241 249 300 187 294 295 23 241 129 177 173 222 122 244
193 187 188 195 195 195 194 191 191 192 193 198 189 189 193 198 191 197 194 177 189 190 182 187 187 189 196 200 197 214 297 240 150 203 249 2 30 29 15 169 179 218 226
190 190 192 194 197 196 195 195 190 194 196 198 200 189 205 197 192 201 159 186 182 193 195 190 194 195 200 186 198 180 261 256 311 193 177 192 182 223 312 239 164 195 193
188 195 194 193 198 197 197 197 191 194 197 196 203 196 199 213 203 198 183 193 196 200 204 196 197 206 209 182 197 193 222 278 277 231 193 200 218 184 251 276 208 5 245
196 193 191 194 195 197 198 197 191 193 196 197 201 203 202 214 219 186 208 201 206 206 191 198 201 205 212 188 198 193 210 216 224 246 226 229 237 269 279 310 292 287 293
194 197 196 195 194 199 195 198 192 192 194 197 199 204 205 205 211 207 206 211 216 207 175 186 205 216 201 204 201 198 210 204 216 225 251 283 230 223 242 262 302 295 281
200 194 196 200 199 197 197 196 195 193 197 197 197 200 204 208 207 211 215 219 218 219 195 209 211 214 216 213 203 217 211 187 212 221 226 242 253 233 242 253 257 272 290
193 201 199 198 201 201 199 197 198 195 196 198 197 198 199 205 211 209 210 215 221 227 216 204 214 218 219 216 215 216 206 201 221 230 204 228 255 268 248 258 260 259 268
194 198 198 199 201 202 201 200 199 199 198 201 201 201 199 202 207 210 207 215 219 219 217 218 214 217 216 214 214 227 236 202 218 245 250 225 247 258 263 253 252 258 261
208 198 192 196 195 201 201 201 202 203 202 204 202 202 201 201 204 207 213 209 212 215 218 216 216 217 218 216 214 221 224 222 226 227 235 242 242 233 254 266 270 270 274
241 223 191 189 197 197 203 202 203 203 205 204 203 203 204 204 204 204 206 208 208 209 215 217 217 214 216 217 218 222 227 227 222 227 231 236 240 246 255 260 264 263 253
332 297 202 191 192 199 197 202 203 205 205 203 207 205 204 206 205 203 205 206 207 207 210 214 216 216 216 218 221 222 226 228 229 231 236 240 242 243 246 250 256 262 267
322 286 256 212 191 195 196 198 208 205 204 202 203 206 205 205 205 205 205 206 208 209 211 212 215 216 218 220 219 223 224 225 230 235 236 240 244 247 247 251 255 259 257
333 330 323 310 214 194 200 198 205 208 206 200 203 204 202 202 204 205 206 206 205 207 210 213 214 216 220 224 223 217 223 228 230 232 236 242 250 253 252 253 255 257 263
331 330 320 301 292 266 208 209 203 211 207 208 202 203 201 202 204 203 202 203 204 206 210 214 215 219 222 225 226 225 223 229 231 233 236 240 248 250 247 254 262 266 265
325 321 308 303 282 262 261 210 211 203 213 206 203 201 201 202 202 203 204 202 203 206 209 214 216 219 225 227 228 229 230 232 238 239 240 242 246 248 251 255 257 258 260
320 313 308 293 292 278 270 261 202 205 206 210 208 201 201 200 202 203 202 203 205 209 213 216 216 218 224 228 230 228 228 234 238 241 243 245 249 251 253 253 254 260 262
332 320 316 314 296 276 253 248 234 204 203 209 207 204 203 203 204 205 203 202 205 211 217 219 219 220 224 226 229 230 227 233 237 242 245 247 247 250 252 251 251 257 260
341 332 332 318 303 289 273 236 237 210 210 205 205 205 204 205 207 207 206 204 205 212 215 221 221 223 225 226 231 232 224 230 235 241 246 245 252 255 254 251 247 251 260
350 346 343 342 341 328 302 232 225 221 198 200 200 202 202 204 202 204 204 206 205 209 213 217 223 226 228 231 233 233 231 227 232 241 246 248 252 254 254 253 254 258 259
349 352 345 352 355 352 352 247 228 182 187 194 199 201 201 201 205 196 199 200 203 211 215 216 222 228 227 230 234 235 236 236 232 237 242 250 258 262 244 245 249 256 250
340 348 356 356 352 1 8 11 1 209 196 195 202 201 198 201 205 196 200 204 206 209 218 217 222 226 228 230 227 227 231 236 237 239 240 244 250 249 248 250 249 243 242
326 341 351 357 359 4 3 6 6 5 226 206 207 201 201 199 201 204 200 205 211 211 210 218 216 225 228 231 230 222 210 222 227 227 235 239 242 246 247 247 247 248 246
311 340 352 1 0 4 4 0 7 8 333 222 210 201 204 193 202 201 191 200 195 212 219 217 225 234 242 231 219 216 213 209 214 206 227 232 236 240 242 244 245 251 249